Showing default

LYRA-3, 64577

Orbit data source: Space-Track

LYRA-3, 64577 is a payload satellite owned by Echostar AU (AU) in SSO that was launched on Mon, 23 Jun 2025 UTC via an FALCON 9 launch vehicle from the Air Force Western Test Range (AFWTR). Payload-class satellites include a variety of spacecraft equipped with specific instruments for various scientific and technological missions. These include communications satellites like Starlink; space stations such as the ISS; scientific satellites like the Hubble; Earth observation satellites from companies like Planet Labs, Umbra, and HawkEye 360; GPS; miniature CubeSats for education and research; and military/defense satellites.

Loading next visibility...
Identifier
64577, 2025-135BB
Orbit
SSO
Country
Flag of AUAU / AUS
Related business
Manufacturer
Astro Digital
Mission
Operational Commercial Communications
Bus & Motor
CORVUS XL, Unknown motor
Mass
74 kg wet, 74 kg dry
Launch date (UTC)
2025-06-23 (7 months ago)
Launch vehicle
FALCON 9
Launch site
Air Force Western Test Range (AFWTR)
Object type
Payload
Rocket body
Debris
Shape & HBR
Box, 1.0 m
Radar Cross Section
0.425 m², Medium (>0.1 m² and < 1m²)

Expand to show TLE details & history
Last TLE update: 10 hours ago

TLE from 10 hours ago
0 LYRA-3
1 64577U 25135BB  26035.81110632  .00002834  00000-0  43697-3 0  9992
2 64577  97.7643 146.2849 0021829  52.1225 308.1954 14.73982514 33763
Epoch: 2026-02-04T19:27Z
TLE epoch observation values (Epoch: 2026-02-04T19:27:59.586Z)
Latitude
-0.00001°
Longitude
79.31429°
Altitude
641.935 km
Speed
7.542 km/s
True Right ascension
09h 45m 08s
True Declination
0° 00' 00"
Sunlit
Object was in full shadow at epoch
Visualization orbit readout
Latitude
Unknown
Longitude
Unknown
Altitude
Unknown
Speed
Unknown
Apparent Right ascension
Unknown
Apparent Declination
Unknown
Sunlit
N/A
Visualization observer readout
Local Sidereal Time
07:51:47
Azimuth
Unknown
Elevation
Unknown
Doppler factor
Unknown
Orbital elements
Apogee altitude
660.758 km
Perigee altitude
630.094 km
Semi-major axis
7,023.563 km
Eccentricity
0.00218
Inclination
97.7643°
RAAN
146.2849°
Arg. of periapsis
52.1225°
True anomaly
307.99848°
Mean anomaly
308.1954°
Eccentric anomaly
308.09697°
Mean motion
3.68729 °/min
Orbital period
97.63 mins
BSTAR
0.00043697
Loading maneuver chart data...
Computing Atmospheric mass density...
Loading historical data...
Loading historical data...
Loading historical data...
Loading historical data...
Loading historical data...
Loading historical data...
Loading historical data...

Documentation

Showing up to 5 results
|